Tracking 33200 objects as of 18-Feb-2026
HD Live streaming from Space Station
objects crossing your sky now

LDPE-3A DEB

Track LDPE-3A DEB now!


NORAD ID: 55267
Int'l Code: 2023-008E
Perigee: 35,238.3 km
Apogee: 35,274.4 km
Inclination: 2.9 °
Period: 1,408.7 minutes
Semi major axis: 41627 km
RCS: Unknown
Launch date: January 15, 2023
Source: United States (US)
Launch site: AIR FORCE EASTERN TEST RANGE (AFETR)

Note: This is SATELLITE DEBRIS
Your satellite tracking list
Your tracking list is empty




NASA's NSSDC Master Catalog

Two Line Element Set (TLE):
1 55267U 23008E   26048.53680379 -.00000200  00000-0  00000+0 0  9991
2 55267   2.8551  79.5943 0004333 196.6083 163.7169  1.02219685  6677
Source of the keplerian elements: AFSPC